User: anonymous   Login
Location: Unspecified
(0.0000°N, 0.0000°E)
Time: 08:25:57
(UTC+00:00)
Language:

SUCHAI - Orbit

View from above orbital plane
View from above orbital plane
View from above satellite
View from above satellite

Ground track
Ground track

The orbit data is extracted from the following two-line orbital elements,

1 42788U 17036Z   18267.93539134 +.00001547 +00000-0 +70296-4 0  9992
2 42788 097.3914 326.1779 0013598 087.6693 272.6100 15.22187276069761
Epoch (UTC): 24 September 2018 22:26:57
Eccentricity: 0.0013598
inclination: 97.3914°
perigee height: 490 km
apogee height: 508 km
right ascension of ascending node: 326.1779°
argument of perigee: 87.6693°
revolutions per day: 15.22187276
mean anomaly at epoch: 272.6100°
orbit number at epoch: 6976

The dashed part of the orbit path shows where the satellite is in the earth's shadow,  

DLR